O3B FM14 (43233 NORAD) Tracking and Keplerian Element Data

This shows tracking and keplerian element data for the satellite.

Feedback or suggestion? Click here.




ElementValue
Catalog43233
NameO3B FM14
Epoch Orbit2043
Epoch Day111.81942379
Epoch Year2019
RAAN22.5257
Inclination0.0392
Eccentricity0.0003115
Argument of Perigee9.4009
Mean Anonmoly328.0914
Mean Motion5.00115486
Decay Rate-3E-07
L11 43233U 18024C 19111.81942379 -.00000030 00000-0 00000-0 0 9990
L22 43233 0.0392 22.5257 0003115 9.4009 328.0914 5.00115486 20432

Live tracking and technical data element details for O3B FM14 (NORAD 43233). O3B FM14 can be tracked NOW for your location showing map with azimuth and elevation plus other details from your city location.

Track the satellite on the map from your city or location and see movement details for azimuth, elevation, latitude, longitude, range, height, and movement on the map or in text.







IsCatalogInMostPopularTable: catalog: 43233, numindb: 166
Update: records affected: 1



GetName: 43233 O3B FM14

Hit Count: updated at: Tue, 23 Apr 2019 06:48:24 GMT